Weather History for Lancaster, OH

Change the Weather History Date:

Friday, July 12, 2013

  Actual Average Record
Temperature  
Mean Temperature 66 °F -  
Max Temperature 79 °F 85 °F 100 °F (1936)
Min Temperature 55 °F 61 °F 43 °F (1945)
Cooling Degree Days 2    
Growing Degree Days 16 (Base 50)    
Moisture  
Dew Point 60 °F    
Average Humidity 73    
Maximum Humidity 96    
Minimum Humidity 54    
Precipitation  
Precipitation 0.01 in - - ()
Sea Level Pressure  
Sea Level Pressure 30.06 in    
Wind  
Wind Speed 5 mph (NE)    
Max Wind Speed 14 mph    
Max Gust Speed 22 mph    
Visibility 10 miles    
Events Thunderstorm    
Averages and records for this station are not official NWS values.
T = Trace of Precipitation, MM = Missing Value Source: NWS Daily Summary

Daily Weather History Graph

Daily Weather History Graph

Search for Another Location

Airport:

Trip Planner

Search our weather history database for the weather conditions in past years. The results will help you decide how hot, cold, wet, or windy it might be!

Date:

Astronomy

Jul. 12, 2013 Rise Set
Actual Time 6:13 AM EDT 8:59 PM EDT
Civil Twilight 5:41 AM EDT 9:30 PM EDT
Nautical Twilight 5:01 AM EDT 10:10 PM EDT
Astronomical Twilight 4:15 AM EDT 10:56 PM EDT
Moon 10:28 AM EDT (7/12) 11:09 PM EDT (7/12)
Length of Visible Light 15h 49m
Length of Day
14h 46m
Waxing Crescent, 17% of the Moon is Illuminated
Jul 12
Waxing Crescent
Jul 15
First Quarter
Jul 22
Full
Jul 29
Last Quarter
Aug 6
New

Hourly Weather History & Observations

Time (EDT) Temp. Dew Point Humidity Pressure Visibility Wind Dir Wind Speed Gust Speed Precip Events Conditions
12:53 AM 57.9 °F 55.9 °F 93% 30.03 in 10.0 mi NNW 3.5 mph - N/A   Clear
1:53 AM 57.0 °F 55.0 °F 93% 30.03 in 10.0 mi NW 3.5 mph - N/A   Clear
2:53 AM 57.0 °F 55.0 °F 93% 30.03 in 9.0 mi Calm Calm - 0.01 in   Clear
3:53 AM 55.9 °F 54.0 °F 93% 30.04 in 8.0 mi Calm Calm - N/A   Clear
4:53 AM 55.9 °F 54.0 °F 93% 30.04 in 8.0 mi Calm Calm - N/A   Clear
5:53 AM 57.0 °F 55.0 °F 93% 30.05 in 10.0 mi Calm Calm - N/A   Partly Cloudy
6:53 AM 57.0 °F 55.9 °F 96% 30.06 in 7.0 mi Calm Calm - N/A   Clear
7:53 AM 61.0 °F 57.9 °F 90% 30.08 in 10.0 mi NW 4.6 mph - N/A   Clear
8:53 AM 66.0 °F 61.0 °F 84% 30.09 in 10.0 mi North 4.6 mph - N/A   Clear
9:36 AM 69.8 °F 62.6 °F 78% 30.10 in 10.0 mi Variable 4.6 mph - N/A   Partly Cloudy
9:53 AM 69.1 °F 62.1 °F 78% 30.09 in 10.0 mi NNE 9.2 mph - N/A   Clear
10:53 AM 73.0 °F 62.1 °F 68% 30.08 in 10.0 mi NNE 5.8 mph - N/A   Partly Cloudy
11:53 AM 75.0 °F 62.1 °F 64% 30.08 in 10.0 mi North 9.2 mph - N/A   Scattered Clouds
12:53 PM 75.0 °F 57.9 °F 55% 30.08 in 10.0 mi NE 9.2 mph - N/A   Partly Cloudy
1:53 PM 78.1 °F 60.1 °F 54% 30.06 in 10.0 mi East 9.2 mph - N/A   Scattered Clouds
2:53 PM 78.1 °F 62.1 °F 58% 30.05 in 10.0 mi ENE 11.5 mph - N/A   Clear
3:53 PM 75.0 °F 62.1 °F 64% 30.05 in 10.0 mi NE 9.2 mph - N/A   Mostly Cloudy
4:05 PM 73.4 °F 60.8 °F 65% 30.06 in 10.0 mi NNE 6.9 mph - N/A Thunderstorm Thunderstorm
4:20 PM 75.2 °F 62.6 °F 65% 30.06 in 10.0 mi NNE 5.8 mph - N/A   Overcast
4:53 PM 75.9 °F 62.1 °F 62% 30.04 in 10.0 mi NNE 11.5 mph - N/A   Mostly Cloudy
5:45 PM 77.0 °F 62.6 °F 61% 30.06 in 10.0 mi NE 11.5 mph 18.4 mph N/A Thunderstorm Clear
5:53 PM 78.1 °F 62.1 °F 58% 30.04 in 10.0 mi NE 12.7 mph 19.6 mph N/A Thunderstorm Partly Cloudy
6:00 PM 77.0 °F 60.8 °F 57% 30.05 in 10.0 mi NE 13.8 mph 21.9 mph N/A   Scattered Clouds
6:40 PM 75.2 °F 59.0 °F 57% 30.06 in 10.0 mi ENE 8.1 mph - N/A Thunderstorm Partly Cloudy
6:53 PM 77.0 °F 60.1 °F 56% 30.05 in 10.0 mi ENE 6.9 mph - N/A   Clear
7:53 PM 73.0 °F 60.1 °F 64% 30.06 in 10.0 mi NE 5.8 mph - N/A   Clear
8:53 PM 70.0 °F 60.1 °F 71% 30.06 in 10.0 mi NE 6.9 mph - N/A   Clear
9:53 PM 70.0 °F 60.1 °F 71% 30.09 in 10.0 mi East 9.2 mph - N/A   Overcast
10:53 PM 66.0 °F 62.1 °F 87% 30.10 in 10.0 mi Calm Calm - N/A   Mostly Cloudy
11:53 PM 66.0 °F 60.1 °F 81% 30.09 in 10.0 mi Calm Calm - N/A   Mostly Cloudy